[[{"header":{"parameterUnit":"m.s-1","parameterCategory":1,"la1":30.2992,"la2":30.254,"lo1":-89.0895,"lo2":-89.0443,"dy":0.0025,"dx":0.0025,"nx":19,"ny":19,"refTime":"2026-05-17T03:00:00:Z","depth":0,"parameterNumber":2,"parameterNumberName":"U-component_of_WINDS"},"data":[0,0,0,-4.8599,-4.8601,-4.8698,-4.8698,-4.8833,-4.8834,0,0,0,0,0,0,0,0,0,0,0,-4.8578,-4.858,-4.8598,-4.8601,-4.8698,-4.8698,-4.8833,-4.8834,0,0,0,0,0,0,0,0,0,0,0,-4.8578,-4.8579,-4.8581,-4.8601,-4.8698,-4.8698,-4.8833,-4.8755,0,0,0,0,0,0,0,0,0,0,-4.8659,-4.8649,-4.8579,-4.8581,-4.8602,-4.8698,-4.8698,-4.8751,-4.876,-4.8795,0,-4.8829,0,-4.8834,-4.8844,-4.8845,0,0,0,-4.8594,-4.8642,-4.866,-4.8581,-4.8603,-4.8697,-4.8652,-4.8756,-4.8766,-4.8806,-4.8831,-4.8836,-4.8837,-4.8845,-4.8846,-4.9072,-4.9073,0,0,-4.8589,-4.86,-4.8654,-4.8667,-4.8655,-4.8649,-4.8655,-4.8762,-4.8789,-4.8831,-4.8839,-4.8839,-4.8846,-4.8847,-4.9071,-4.9072,0,0,0,-4.8578,-4.8596,-4.8612,-4.8662,-4.8679,-4.8652,-4.8659,-4.8784,-4.8788,-4.884,-4.884,-4.8847,-4.8849,-4.9069,-4.9071,-4.9148,0,0,0,-4.8575,-4.859,-4.861,-4.8618,-4.8677,-4.8733,-4.8679,-4.8781,-4.8792,-4.884,-4.8847,-4.885,-4.9068,-4.907,-4.9143,-4.9181,0,0,0,-4.8569,-4.8589,-4.8606,-4.8618,-4.866,-4.8731,-4.8741,-4.8783,-4.8793,-4.8845,-4.8851,-4.9067,-4.907,-4.9138,-4.9174,-4.9242,0,0,0,-4.8566,-4.8674,-4.8608,-4.8729,-4.866,-4.8779,-4.874,-4.8829,-4.8883,-4.8848,-4.9068,-4.9071,-4.9136,-4.9169,-4.9237,-4.9299,-4.9328,0,0,-4.8707,-4.8691,-4.8761,-4.8705,-4.8839,-4.8764,-4.8909,-4.8947,-4.8942,-4.9029,-4.9034,-4.9145,-4.9173,-4.9241,-4.9487,-4.9509,0,0,0,-4.881,-4.886,-4.8893,-4.8946,-4.8979,-4.901,-4.9026,-4.904,-4.9113,-4.8989,-4.9189,-4.9206,-4.9245,-4.9274,-4.9293,-4.9325,-4.9086,-4.9086,-4.9085,-4.9023,-4.9012,-4.9126,-4.9127,-4.9179,-4.9195,-4.9235,-4.9256,-4.9229,-4.9277,-4.9301,-4.9452,-4.9487,-4.9501,-4.9534,-4.9337,-4.9337,-4.9337,-4.9337,-4.9227,-4.9295,-4.9259,-4.9356,-4.9343,-4.9425,-4.9445,-4.9423,-4.9496,-4.9433,-4.9467,-4.9395,-4.9526,-4.9554,-4.9343,-4.9342,-4.9341,-4.9341,-4.934,-4.9362,-4.9392,-4.941,-4.9485,-4.9544,-4.9541,-4.9613,-4.9599,-4.9587,-4.9621,-4.9643,-4.9642,-4.9636,-4.9634,-4.9634,-4.9635,-4.9635,-4.9636,-4.9636,-4.9494,-4.9511,-4.9574,-4.962,-4.9651,-4.9692,-4.971,-4.9741,-4.977,-4.9755,-4.9755,-4.9721,-4.9542,-4.9495,-4.9644,-4.9642,-4.9641,-4.9641,-4.964,-4.9698,-4.965,-4.9747,-4.9779,-4.9831,-4.989,-4.9873,-4.9937,-4.996,-4.9995,-4.9956,-4.9827,-4.9808,-4.9793,-4.9754,-4.996,-4.996,-4.996,-4.996,-4.9809,-4.98,-4.9895,-4.9948,-4.9997,-4.9992,-5.01,-5.0116,-5.0124,-5.0138,-5.0107,-5.0055,-5.0041,-5.003,-5.001,-4.9972,-5.023,-5.023,-5.0231,-4.9933,-4.9928,-5.0022,-5.0032,-5.0072,-5.0106,-5.0206,-5.0266,-5.0266,-5.0241,-5.0147,-5.0136,-5.0052,-5.0026,-4.9995,-4.9964,-4.9895,0,0]},{"header":{"parameterUnit":"m.s-1","parameterCategory":1,"la1":30.2992,"la2":30.254,"lo1":-89.0895,"lo2":-89.0443,"dy":0.0025,"dx":0.0025,"nx":19,"ny":19,"refTime":"2026-05-17T03:00:00:Z","depth":0,"parameterNumber":3,"parameterNumberName":"V-component_of_WINDS"},"data":[0,0,0,3.7515,3.7514,3.7479,3.7479,3.7447,3.7447,0,0,0,0,0,0,0,0,0,0,0,3.7534,3.7535,3.7515,3.7514,3.7479,3.7479,3.7447,3.7447,0,0,0,0,0,0,0,0,0,0,0,3.7534,3.7535,3.7535,3.7514,3.7479,3.7479,3.7447,3.7468,0,0,0,0,0,0,0,0,0,0,3.75,3.7528,3.7534,3.7535,3.7514,3.7479,3.7479,3.7469,3.7467,3.7469,0,3.7475,0,3.7461,3.7446,3.7446,0,0,0,3.7506,3.753,3.7512,3.7535,3.7514,3.7479,3.7493,3.7468,3.7466,3.7466,3.7474,3.7473,3.746,3.7446,3.7446,3.7488,3.7489,0,0,3.7508,3.7533,3.7514,3.7511,3.752,3.7494,3.7492,3.7466,3.7476,3.7474,3.7472,3.746,3.7446,3.7445,3.7488,3.7488,0,0,0,3.7519,3.7534,3.7517,3.7513,3.7506,3.7493,3.7491,3.7477,3.7469,3.7471,3.7459,3.7446,3.7445,3.7487,3.7488,3.7541,0,0,0,3.752,3.7541,3.7518,3.7533,3.7507,3.7491,3.7502,3.7471,3.7467,3.746,3.7446,3.7445,3.7486,3.7487,3.7538,3.7561,0,0,0,3.7533,3.7542,3.7541,3.7534,3.752,3.7491,3.7482,3.747,3.7461,3.7446,3.7445,3.7486,3.7487,3.7536,3.7557,3.7581,0,0,0,3.7554,3.7586,3.7542,3.7573,3.7521,3.7525,3.7482,3.7483,3.7476,3.7445,3.7486,3.7488,3.7535,3.7555,3.7578,3.7606,3.7619,0,0,3.7608,3.7594,3.761,3.7569,3.7588,3.7528,3.7554,3.7523,3.7498,3.7492,3.7493,3.7539,3.7557,3.758,3.7687,3.7698,0,0,0,3.7635,3.7647,3.7647,3.7644,3.7623,3.7607,3.7571,3.756,3.7555,3.7501,3.7553,3.7563,3.7575,3.7587,3.7597,3.7606,3.7494,3.7494,3.7494,3.7746,3.7714,3.774,3.7705,3.7702,3.7665,3.766,3.7638,3.7605,3.7618,3.7616,3.7685,3.77,3.7707,3.7717,3.7628,3.7628,3.7628,3.7628,3.7822,3.7835,3.7793,3.7803,3.7769,3.7776,3.7742,3.7719,3.772,3.7683,3.7693,3.7656,3.772,3.7728,3.7632,3.7631,3.7631,3.7631,3.763,3.7891,3.7892,3.788,3.7873,3.7871,3.7833,3.7838,3.7806,3.7775,3.7785,3.778,3.7779,3.7775,3.7785,3.7785,3.7786,3.7786,3.7786,3.7786,3.7968,3.7953,3.7961,3.7944,3.7938,3.7927,3.7892,3.7885,3.7869,3.7845,3.7845,3.7812,3.7733,3.7714,3.779,3.7789,3.7789,3.7788,3.7788,3.8058,3.8033,3.8046,3.8041,3.8018,3.8019,3.7979,3.7969,3.7958,3.7961,3.7926,3.7873,3.7855,3.7847,3.7831,3.7933,3.7933,3.7933,3.7933,3.8117,3.8105,3.8112,3.8106,3.8097,3.8063,3.8078,3.8051,3.8019,3.8011,3.7991,3.7968,3.7961,3.7947,3.7937,3.7922,3.8044,3.8044,3.8044,3.817,3.8157,3.8176,3.8147,3.8128,3.8111,3.8125,3.8119,3.8077,3.8048,3.8004,3.7999,3.796,3.7949,3.7919,3.7904,3.7875,0,0]}]]